User: anonymous   Login
Location: Unspecified
(0.0000°N, 0.0000°E)
Time: 19:00:41
(UTC+00:00)
Language:

LIBERTAD 1 - Orbit

View from above orbital plane
View from above orbital plane
View from above satellite
View from above satellite

Ground track
Ground track

The orbit data is extracted from the following two-line orbital elements,

1 31128U 07012M   17084.85390810 +.00000201 +00000-0 +53135-4 0  9993
2 31128 098.0733 036.0623 0098160 101.2827 259.9421 14.55812580527300
Epoch (UTC): 25 March 2017 20:29:37
Eccentricity: 0.0098160
inclination: 98.0733°
perigee height: 637 km
apogee height: 776 km
right ascension of ascending node: 36.0623°
argument of perigee: 101.2827°
revolutions per day: 14.55812580
mean anomaly at epoch: 259.9421°
orbit number at epoch: 52730

The dashed part of the orbit path shows where the satellite is in the earth's shadow,  

DLR